Location: ???????
(54.9996°N, 37.9529°E)
Time: 13:17:52
(UTC+00:00)

Cosmos 2297 - Pass Details

Date: 14 April 2024
Orbit: 834 x 859 km, 71.0° (Epoch: 17 May)

Event Time Altitude Azimuth Distance (km) Brightness Sun altitude
Rises 01:20:00 0° 326° (NW) 3,439 6.9 -9.5°
Reaches altitude 10° 01:22:28 10° 327° (NNW) 2,502 6.2 -9.2°
Maximum altitude 01:28:14 82° 56° (NE) 875 3.9 -8.5°
Drops below altitude 10° 01:34:00 10° 144° (SE) 2,493 6.2 -7.8°
Sets 01:36:27 0° 146° (SE) 3,426 6.9 -7.5°
